Погода в Плещеево

Россия / Орловская область     53°01′25″N   36°04′46″E
темп.,
°C
ветер,
м/с
пор.,
м/с
влажн.,
%
обл.,
%
осадки,
мм/ч
давл.,
гПа
погр.,
м
15 апреля, чт
чт1500:00+11юв1270100 0.0 101413
03:00+11всв4765100 0.0 1014136
06:00+11всв3766100 0.1 1013139
09:00+13юв5861100 0.1 1012637
12:00+15юв5760100 0.0 1012924
15:00+15юв4562100 2.1 1012818
18:00+12всв3477100 1.8 1012101
21:00+11всв478259 2.4 1013133
16 апреля, пт
пт1600:00+9вюв3480100 0.1 101360
03:00+9вюв388468 0.1 1014184
06:00+6юв38925 0.0 1015179
09:00+11юв47684 0.0 1016610
12:00+14юв610525 0.0 10161665
15:00+16юв710409 0.0 10152366
18:00+14ю575396 0.0 1016602
21:00+10ю226972 0.0 101737
17 апреля, сб
сб1700:00+9в2270100 0.0 101818
03:00+8всв337468 0.0 101837
06:00+7ююв2687100 0.6 1019151
09:00+8сз3484100 1.3 1019261
12:00+10св4884100 4.5 1018740
15:00+10всв6985100 6.3 1018755
18:00+9вюв3485100 0.4 1018387
21:00+8в1295100 1.1 101859
18 апреля, вс
вс1800:00+8ссз3698100 1.4 1017212
03:00+9ссв6118788 1.6 1017491
06:00+7ссв81384100 0.0 1017679
09:00+7св61087100 0.0 1018820
12:00+10всв71072100 0.1 10191335
15:00+10всв5868100 0.4 10201443
18:00+9св5873100 0.1 1021507
21:00+7св49877 0.1 1023368
19 апреля, пн
пн1900:00+4ссв49915 0.0 1023257
03:00+4св512925 0.0 1024426
06:00+3ссв410945 0.0 1024255
09:00+7всв61175100 0.0 1024755
12:00+10всв71063100 0.0 10241506
15:00+10всв896870 0.2 10241294
18:00+8всв61075100 0.0 1025973
21:00+8всв61265100 0.0 1025693